Location: Newark
(40.9833°N, 0.0333°W)
Time: 02:25:16
(UTC+00:00)

Altair - Pass Details

Date: 28 October 2020
Orbit: 1502 x 1682 km, 47.2° (Epoch: 02 December)

Event Time Altitude Azimuth Distance (km) Brightness Sun altitude
Rises 07:56:16 0° 277° (W) 4,689 9.5 14.5°
Reaches altitude 10° 07:59:22 10° 281° (W) 3,726 9.0 15.0°
Maximum altitude 08:08:43 60° 1° (N) 1,780 7.9 16.4°
Drops below altitude 10° 08:18:26 10° 80° (E) 3,868 10.4 17.9°
Sets 08:21:42 0° 84° (E) 4,876 10.9 18.4°
